Thalia — FPCS — position and weather

sailwx.info

Track history (hours):
 
Tides and Currents Weather Stations Pressure Air Temp Water Temp Dewpoint Dewpoint Depression Visibility Wind Speed Wind Dir Waves Ship Positions

Oceanographic research ship Thalia (France)

Detailed information on ship capabilities available from University of Delaware's Ocean Information Center.

Last reported at 2017-Jun-23 04:57 UTC. Time now 2017-Jun-23 05:19 UTC.
Position N 45°40' W 001°11'.

Length 25 m; beam 7 m.

MMSI: 227270000.

Date/timePositionNaut miles runAvg speedWind from/ knotsBaromVisibWave heightAir tempDewpointWater temp
2017-Jun-23 04:57N 45°40' W 001°11'0 0.0
2017-Jun-23 04:23N 45°40' W 001°11'0 0.1
2017-Jun-23 03:56N 45°40' W 001°10'0 0.0
2017-Jun-23 03:17N 45°40' W 001°10'0 0.0
2017-Jun-22 11:58N 45°40' W 001°10'0 0.0
2017-Jun-22 05:28N 45°40' W 001°11'0 0.0
2017-Jun-22 04:58N 45°40' W 001°11'0 0.0
2017-Jun-22 04:25N 45°40' W 001°11'0 0.0
2017-Jun-22 03:40N 45°40' W 001°11'0 0.0
2017-Jun-22 03:18N 45°40' W 001°10'0 0.0
2017-Jun-22 02:18N 45°40' W 001°10'0 0.0
2017-Jun-22 01:53N 45°40' W 001°10'0 0.0
2017-Jun-22 01:17N 45°40' W 001°10'0 0.0
2017-Jun-22 00:53N 45°40' W 001°10'0 0.0
2017-Jun-21 23:10N 45°40' W 001°10'0 0.1
2017-Jun-21 22:55N 45°40' W 001°10'0 0.0
2017-Jun-21 22:28N 45°40' W 001°11'0 0.0
2017-Jun-21 21:52N 45°40' W 001°11'0 0.0
2017-Jun-21 21:28N 45°40' W 001°11'0 0.0
2017-Jun-21 20:57N 45°40' W 001°11'0 0.0
2017-Jun-21 20:27N 45°40' W 001°11'0 0.0
2017-Jun-21 20:00N 45°40' W 001°11'0 0.0
2017-Jun-21 19:27N 45°40' W 001°11'0 0.0
2017-Jun-21 18:56N 45°40' W 001°11'0 0.0
2017-Jun-21 18:26N 45°40' W 001°11'0 0.0
2017-Jun-21 17:56N 45°40' W 001°11'0 0.0
2017-Jun-21 17:20N 45°40' W 001°11'0 0.0
2017-Jun-21 16:59N 45°40' W 001°11'0 0.1
2017-Jun-21 16:28N 45°40' W 001°11'0 0.0
2017-Jun-21 15:55N 45°40' W 001°11'0 0.0
2017-Jun-21 15:28N 45°40' W 001°11'3 1.6
2017-Jun-21 13:24N 45°39' W 001°15'4 7.5
2017-Jun-21 12:50N 45°37' W 001°20'3 6.2
2017-Jun-21 12:24N 45°35' W 001°22'4 5.4
2017-Jun-21 11:40N 45°31' W 001°21'1 7.7
2017-Jun-21 11:28N 45°29' W 001°21'1 2.9
2017-Jun-21 11:00N 45°28' W 001°21'0 0.0
2017-Jun-21 10:30N 45°28' W 001°21'2 3.9
2017-Jun-21 10:00N 45°29' W 001°19'2 4.3
2017-Jun-21 09:30N 45°30' W 001°16'2 4.3
2017-Jun-21 09:00N 45°31' W 001°13'3 6.8
2017-Jun-21 08:30N 45°32' W 001°09'4 5.9
2017-Jun-21 07:50N 45°35' W 001°05'3 9.5
2017-Jun-21 07:30N 45°33' W 001°01'612.5
2017-Jun-21 06:59N 45°28' W 000°55'1714.1
2017-Jun-21 05:49N 45°13' W 000°44'1313.1
2017-Jun-21 04:49N 45°02' W 000°36'8 4.7
2017-Jun-21 03:09N 44°54' W 000°32'0 0.0
2017-Jun-21 02:57N 44°54' W 000°32'0 0.0
2017-Jun-21 01:44N 44°54' W 000°32'45 1.0
2017-Jun-19 02:54N 45°34' W 001°03'0 0.0
2017-Jun-19 02:24N 45°34' W 001°03'0 0.0
2017-Jun-19 01:51N 45°34' W 001°03'0 0.0
2017-Jun-19 01:29N 45°34' W 001°03'0 0.0
2017-Jun-19 00:59N 45°34' W 001°03'0 0.0
2017-Jun-19 00:26N 45°34' W 001°03'0 0.0
2017-Jun-18 23:50N 45°34' W 001°03'0 0.0
2017-Jun-18 23:07N 45°34' W 001°03'0 0.0
2017-Jun-18 22:58N 45°34' W 001°03'0 0.0
2017-Jun-18 22:16N 45°34' W 001°03'0 0.0
2017-Jun-18 21:55N 45°34' W 001°03'0 0.0
2017-Jun-18 21:22N 45°34' W 001°03'0 0.1
2017-Jun-18 20:57N 45°34' W 001°03'0 0.0
2017-Jun-18 20:24N 45°34' W 001°03'0 0.0
2017-Jun-18 19:57N 45°34' W 001°03'0 0.0
2017-Jun-18 19:30N 45°34' W 001°03'1 2.5
2017-Jun-18 19:00N 45°35' W 001°03'5 9.9
2017-Jun-18 18:30N 45°38' W 001°08'3 6.8
2017-Jun-18 18:00N 45°40' W 001°12'0 0.0
2017-Jun-18 13:57N 45°40' W 001°12'0 0.0
2017-Jun-18 12:47N 45°40' W 001°12'0 0.0
2017-Jun-18 12:27N 45°40' W 001°12'1 2.9
2017-Jun-18 12:00N 45°39' W 001°14'3 5.8
2017-Jun-18 11:29N 45°38' W 001°18'3 5.7
2017-Jun-18 11:00N 45°37' W 001°21'3 6.5
2017-Jun-18 10:30N 45°38' W 001°18'4 6.9
2017-Jun-18 09:56N 45°40' W 001°12'3 6.6
2017-Jun-18 09:29N 45°39' W 001°08'3 6.2
2017-Jun-18 09:00N 45°37' W 001°05'3 5.9
2017-Jun-18 08:30N 45°35' W 001°03'2 4.3
2017-Jun-18 08:00N 45°33' W 001°01'0 0.4
2017-Jun-18 07:30N 45°33' W 001°01'2 3.6
2017-Jun-18 07:00N 45°31' W 000°59'2 4.2
2017-Jun-18 06:30N 45°30' W 000°57'3 5.8
2017-Jun-18 06:00N 45°32' W 001°00'3 5.3
2017-Jun-18 05:29N 45°34' W 001°03'0 0.0
2017-Jun-18 04:56N 45°34' W 001°03'0 0.0
2017-Jun-18 04:17N 45°34' W 001°03'0 0.0
2017-Jun-18 03:50N 45°34' W 001°03'0 0.0
2017-Jun-18 03:16N 45°34' W 001°03'0 0.0
2017-Jun-18 02:52N 45°34' W 001°03'0 0.0
2017-Jun-18 02:25N 45°34' W 001°03'0 0.0
2017-Jun-18 01:55N 45°34' W 001°03'0 0.0
2017-Jun-18 01:30N 45°34' W 001°03'0 0.0
2017-Jun-18 00:57N 45°34' W 001°03'0 0.0
2017-Jun-18 00:24N 45°34' W 001°03'0 0.0
2017-Jun-18 00:00N 45°34' W 001°03'0 0.1
2017-Jun-17 23:24N 45°34' W 001°03'0 0.0
2017-Jun-17 22:53N 45°34' W 001°03'0 0.0
2017-Jun-17 22:14N 45°34' W 001°03'0 0.0
2017-Jun-17 21:59N 45°34' W 001°03'0 0.0
2017-Jun-17 21:26N 45°34' W 001°03'0 0.0
2017-Jun-17 20:59N 45°34' W 001°03'0 0.0
2017-Jun-17 20:25N 45°34' W 001°03'0 0.0
2017-Jun-17 19:52N 45°34' W 001°03'0 0.0
2017-Jun-17 19:28N 45°34' W 001°03'0 0.0
2017-Jun-17 18:33N 45°34' W 001°03'0 0.1
2017-Jun-17 18:27N 45°34' W 001°03'0 0.0
2017-Jun-17 17:57N 45°34' W 001°03'0 0.0
2017-Jun-17 17:28N 45°34' W 001°03'3 6.5
2017-Jun-17 17:00N 45°32' W 000°60'510.8
2017-Jun-17 16:30N 45°28' W 000°55'911.2
2017-Jun-17 15:40N 45°20' W 000°47'  
2017-Jun-15 02:59N 45°37' W 001°21'4 6.4
2017-Jun-15 02:18N 45°40' W 001°25'5 8.8
2017-Jun-15 01:45N 45°44' W 001°29'5 9.9
2017-Jun-15 01:17N 45°48' W 001°33'3 9.8
2017-Jun-15 01:00N 45°50' W 001°35'5 9.9
2017-Jun-15 00:30N 45°54' W 001°39'510.0
2017-Jun-15 00:00N 45°58' W 001°43'510.4
2017-Jun-14 23:29N 46°03' W 001°47'510.4
2017-Jun-14 23:01N 46°07' W 001°51'510.2
2017-Jun-14 22:29N 46°11' W 001°55'510.3
2017-Jun-14 21:58N 46°16' W 001°60'510.6
2017-Jun-14 21:30N 46°20' W 002°03'510.8
2017-Jun-14 21:01N 46°24' W 002°08'510.7
2017-Jun-14 20:31N 46°29' W 002°12'510.6
2017-Jun-14 20:01N 46°33' W 002°16'610.5
2017-Jun-14 19:29N 46°38' W 002°21'1410.4
2017-Jun-14 18:06N 46°51' W 002°28'210.4
2017-Jun-14 17:54N 46°53' W 002°28'410.4
2017-Jun-14 17:30N 46°57' W 002°29'510.0
2017-Jun-14 17:00N 47°02' W 002°31'610.1
2017-Jun-14 16:27N 47°08' W 002°32'510.3
2017-Jun-14 15:57N 47°13' W 002°33'4 9.7
2017-Jun-14 15:30N 47°17' W 002°34'4 8.2
2017-Jun-14 15:00N 47°21' W 002°31'0 0.0
2017-Jun-14 10:21N 47°21' W 002°31'2 4.4
2017-Jun-14 10:00N 47°20' W 002°32'5 9.3
2017-Jun-14 09:30N 47°15' W 002°34'5 9.4
2017-Jun-14 09:00N 47°10' W 002°34'0 0.2
2017-Jun-14 08:16N 47°10' W 002°34'2 6.0
2017-Jun-14 07:52N 47°13' W 002°34'1 3.3
2017-Jun-14 07:30N 47°14' W 002°34'0 0.4
2017-Jun-14 06:57N 47°14' W 002°34'0 0.7
2017-Jun-14 06:28N 47°14' W 002°34'3 6.0
2017-Jun-14 06:00N 47°17' W 002°35'2 4.8
2017-Jun-14 05:30N 47°19' W 002°34'3 5.1
2017-Jun-14 05:00N 47°21' W 002°31'0 0.0
2017-Jun-14 04:30N 47°21' W 002°31'0 0.0
2017-Jun-14 04:00N 47°21' W 002°31'0 0.0
2017-Jun-14 03:31N 47°21' W 002°31'0 0.0
2017-Jun-14 03:00N 47°21' W 002°31'0 0.0
2017-Jun-14 02:30N 47°21' W 002°31'0 0.0
2017-Jun-14 02:00N 47°21' W 002°31'0 0.0
2017-Jun-14 01:30N 47°21' W 002°31'0 0.0
2017-Jun-14 01:00N 47°21' W 002°31'0 0.0
2017-Jun-14 00:29N 47°21' W 002°31'0 0.0
2017-Jun-14 00:00N 47°21' W 002°31'0 0.0
2017-Jun-13 21:40N 47°21' W 002°31'0 0.0
2017-Jun-13 21:30N 47°21' W 002°31'0 0.0
2017-Jun-13 20:59N 47°21' W 002°31'0 0.0
2017-Jun-13 18:45N 47°21' W 002°31'0 0.0
2017-Jun-13 18:30N 47°21' W 002°31'0 0.0
2017-Jun-13 17:43N 47°21' W 002°31'0 0.0
2017-Jun-13 17:29N 47°21' W 002°31'0 0.0
2017-Jun-13 16:59N 47°21' W 002°31'0 0.0
2017-Jun-13 16:30N 47°21' W 002°31'4 7.0
2017-Jun-13 16:00N 47°18' W 002°35'5 9.5
2017-Jun-13 15:30N 47°14' W 002°34'5 2.0
2017-Jun-13 13:02N 47°11' W 002°40'1 7.6
2017-Jun-13 12:57N 47°11' W 002°41'3 5.8
2017-Jun-13 12:30N 47°12' W 002°44'0 0.2
2017-Jun-13 12:00N 47°12' W 002°45'2 3.2
2017-Jun-13 11:30N 47°12' W 002°42'1 2.0
2017-Jun-13 11:00N 47°12' W 002°44'3 5.0
2017-Jun-13 10:30N 47°13' W 002°47'1 3.0
2017-Jun-13 10:00N 47°15' W 002°48'3 6.3
2017-Jun-13 09:30N 47°17' W 002°44'2 3.9
2017-Jun-13 09:00N 47°18' W 002°42'1 1.7
2017-Jun-13 08:30N 47°17' W 002°43'1 1.8
2017-Jun-13 08:00N 47°17' W 002°44'0 0.0
2017-Jun-13 07:30N 47°17' W 002°44'1 1.9
2017-Jun-13 07:00N 47°16' W 002°45'2 3.7
2017-Jun-13 06:30N 47°17' W 002°43'3 5.6
2017-Jun-13 06:00N 47°19' W 002°39'3 6.6
2017-Jun-13 05:30N 47°20' W 002°35'3 5.3
2017-Jun-13 05:00N 47°21' W 002°31'  
Track history (hours):
 
Tides and Currents Weather Stations Pressure Air Temp Water Temp Dewpoint Dewpoint Depression Visibility Wind Speed Wind Dir Waves Ship Positions

Oceanographic research ship Thalia (France)

Detailed information on ship capabilities available from University of Delaware's Ocean Information Center.

Last reported at 2017-Jun-23 04:57 UTC. Time now 2017-Jun-23 05:19 UTC.
Position N 45°40' W 001°11'.

Length 25 m; beam 7 m.

MMSI: 227270000.

Date/timePositionNaut miles runAvg speedWind from/ knotsBaromVisibWave heightAir tempDewpointWater temp
2017-Jun-23 04:57N 45°40' W 001°11'0 0.0
2017-Jun-23 04:23N 45°40' W 001°11'0 0.1
2017-Jun-23 03:56N 45°40' W 001°10'0 0.0
2017-Jun-23 03:17N 45°40' W 001°10'0 0.0
2017-Jun-22 11:58N 45°40' W 001°10'0 0.0
2017-Jun-22 05:28N 45°40' W 001°11'0 0.0
2017-Jun-22 04:58N 45°40' W 001°11'0 0.0
2017-Jun-22 04:25N 45°40' W 001°11'0 0.0
2017-Jun-22 03:40N 45°40' W 001°11'0 0.0
2017-Jun-22 03:18N 45°40' W 001°10'0 0.0
2017-Jun-22 02:18N 45°40' W 001°10'0 0.0
2017-Jun-22 01:53N 45°40' W 001°10'0 0.0
2017-Jun-22 01:17N 45°40' W 001°10'0 0.0
2017-Jun-22 00:53N 45°40' W 001°10'0 0.0
2017-Jun-21 23:10N 45°40' W 001°10'0 0.1
2017-Jun-21 22:55N 45°40' W 001°10'0 0.0
2017-Jun-21 22:28N 45°40' W 001°11'0 0.0
2017-Jun-21 21:52N 45°40' W 001°11'0 0.0
2017-Jun-21 21:28N 45°40' W 001°11'0 0.0
2017-Jun-21 20:57N 45°40' W 001°11'0 0.0
2017-Jun-21 20:27N 45°40' W 001°11'0 0.0
2017-Jun-21 20:00N 45°40' W 001°11'0 0.0
2017-Jun-21 19:27N 45°40' W 001°11'0 0.0
2017-Jun-21 18:56N 45°40' W 001°11'0 0.0
2017-Jun-21 18:26N 45°40' W 001°11'0 0.0
2017-Jun-21 17:56N 45°40' W 001°11'0 0.0
2017-Jun-21 17:20N 45°40' W 001°11'0 0.0
2017-Jun-21 16:59N 45°40' W 001°11'0 0.1
2017-Jun-21 16:28N 45°40' W 001°11'0 0.0
2017-Jun-21 15:55N 45°40' W 001°11'0 0.0
2017-Jun-21 15:28N 45°40' W 001°11'3 1.6
2017-Jun-21 13:24N 45°39' W 001°15'4 7.5
2017-Jun-21 12:50N 45°37' W 001°20'3 6.2
2017-Jun-21 12:24N 45°35' W 001°22'4 5.4
2017-Jun-21 11:40N 45°31' W 001°21'1 7.7
2017-Jun-21 11:28N 45°29' W 001°21'1 2.9
2017-Jun-21 11:00N 45°28' W 001°21'0 0.0
2017-Jun-21 10:30N 45°28' W 001°21'2 3.9
2017-Jun-21 10:00N 45°29' W 001°19'2 4.3
2017-Jun-21 09:30N 45°30' W 001°16'2 4.3
2017-Jun-21 09:00N 45°31' W 001°13'3 6.8
2017-Jun-21 08:30N 45°32' W 001°09'4 5.9
2017-Jun-21 07:50N 45°35' W 001°05'3 9.5
2017-Jun-21 07:30N 45°33' W 001°01'612.5
2017-Jun-21 06:59N 45°28' W 000°55'1714.1
2017-Jun-21 05:49N 45°13' W 000°44'1313.1
2017-Jun-21 04:49N 45°02' W 000°36'8 4.7
2017-Jun-21 03:09N 44°54' W 000°32'0 0.0
2017-Jun-21 02:57N 44°54' W 000°32'0 0.0
2017-Jun-21 01:44N 44°54' W 000°32'45 1.0
2017-Jun-19 02:54N 45°34' W 001°03'0 0.0
2017-Jun-19 02:24N 45°34' W 001°03'0 0.0
2017-Jun-19 01:51N 45°34' W 001°03'0 0.0
2017-Jun-19 01:29N 45°34' W 001°03'0 0.0
2017-Jun-19 00:59N 45°34' W 001°03'0 0.0
2017-Jun-19 00:26N 45°34' W 001°03'0 0.0
2017-Jun-18 23:50N 45°34' W 001°03'0 0.0
2017-Jun-18 23:07N 45°34' W 001°03'0 0.0
2017-Jun-18 22:58N 45°34' W 001°03'0 0.0
2017-Jun-18 22:16N 45°34' W 001°03'0 0.0
2017-Jun-18 21:55N 45°34' W 001°03'0 0.0
2017-Jun-18 21:22N 45°34' W 001°03'0 0.1
2017-Jun-18 20:57N 45°34' W 001°03'0 0.0
2017-Jun-18 20:24N 45°34' W 001°03'0 0.0
2017-Jun-18 19:57N 45°34' W 001°03'0 0.0
2017-Jun-18 19:30N 45°34' W 001°03'1 2.5
2017-Jun-18 19:00N 45°35' W 001°03'5 9.9
2017-Jun-18 18:30N 45°38' W 001°08'3 6.8
2017-Jun-18 18:00N 45°40' W 001°12'0 0.0
2017-Jun-18 13:57N 45°40' W 001°12'0 0.0
2017-Jun-18 12:47N 45°40' W 001°12'0 0.0
2017-Jun-18 12:27N 45°40' W 001°12'1 2.9
2017-Jun-18 12:00N 45°39' W 001°14'3 5.8
2017-Jun-18 11:29N 45°38' W 001°18'3 5.7
2017-Jun-18 11:00N 45°37' W 001°21'3 6.5
2017-Jun-18 10:30N 45°38' W 001°18'4 6.9
2017-Jun-18 09:56N 45°40' W 001°12'3 6.6
2017-Jun-18 09:29N 45°39' W 001°08'3 6.2
2017-Jun-18 09:00N 45°37' W 001°05'3 5.9
2017-Jun-18 08:30N 45°35' W 001°03'2 4.3
2017-Jun-18 08:00N 45°33' W 001°01'0 0.4
2017-Jun-18 07:30N 45°33' W 001°01'2 3.6
2017-Jun-18 07:00N 45°31' W 000°59'2 4.2
2017-Jun-18 06:30N 45°30' W 000°57'3 5.8
2017-Jun-18 06:00N 45°32' W 001°00'3 5.3
2017-Jun-18 05:29N 45°34' W 001°03'0 0.0
2017-Jun-18 04:56N 45°34' W 001°03'0 0.0
2017-Jun-18 04:17N 45°34' W 001°03'0 0.0
2017-Jun-18 03:50N 45°34' W 001°03'0 0.0
2017-Jun-18 03:16N 45°34' W 001°03'0 0.0
2017-Jun-18 02:52N 45°34' W 001°03'0 0.0
2017-Jun-18 02:25N 45°34' W 001°03'0 0.0
2017-Jun-18 01:55N 45°34' W 001°03'0 0.0
2017-Jun-18 01:30N 45°34' W 001°03'0 0.0
2017-Jun-18 00:57N 45°34' W 001°03'0 0.0
2017-Jun-18 00:24N 45°34' W 001°03'0 0.0
2017-Jun-18 00:00N 45°34' W 001°03'0 0.1
2017-Jun-17 23:24N 45°34' W 001°03'0 0.0
2017-Jun-17 22:53N 45°34' W 001°03'0 0.0
2017-Jun-17 22:14N 45°34' W 001°03'0 0.0
2017-Jun-17 21:59N 45°34' W 001°03'0 0.0
2017-Jun-17 21:26N 45°34' W 001°03'0 0.0
2017-Jun-17 20:59N 45°34' W 001°03'0 0.0
2017-Jun-17 20:25N 45°34' W 001°03'0 0.0
2017-Jun-17 19:52N 45°34' W 001°03'0 0.0
2017-Jun-17 19:28N 45°34' W 001°03'0 0.0
2017-Jun-17 18:33N 45°34' W 001°03'0 0.1
2017-Jun-17 18:27N 45°34' W 001°03'0 0.0
2017-Jun-17 17:57N 45°34' W 001°03'0 0.0
2017-Jun-17 17:28N 45°34' W 001°03'3 6.5
2017-Jun-17 17:00N 45°32' W 000°60'510.8
2017-Jun-17 16:30N 45°28' W 000°55'911.2
2017-Jun-17 15:40N 45°20' W 000°47'  
2017-Jun-15 02:59N 45°37' W 001°21'4 6.4
2017-Jun-15 02:18N 45°40' W 001°25'5 8.8
2017-Jun-15 01:45N 45°44' W 001°29'5 9.9
2017-Jun-15 01:17N 45°48' W 001°33'3 9.8
2017-Jun-15 01:00N 45°50' W 001°35'5 9.9
2017-Jun-15 00:30N 45°54' W 001°39'510.0
2017-Jun-15 00:00N 45°58' W 001°43'510.4
2017-Jun-14 23:29N 46°03' W 001°47'510.4
2017-Jun-14 23:01N 46°07' W 001°51'510.2
2017-Jun-14 22:29N 46°11' W 001°55'510.3
2017-Jun-14 21:58N 46°16' W 001°60'510.6
2017-Jun-14 21:30N 46°20' W 002°03'510.8
2017-Jun-14 21:01N 46°24' W 002°08'510.7
2017-Jun-14 20:31N 46°29' W 002°12'510.6
2017-Jun-14 20:01N 46°33' W 002°16'610.5
2017-Jun-14 19:29N 46°38' W 002°21'1410.4
2017-Jun-14 18:06N 46°51' W 002°28'210.4
2017-Jun-14 17:54N 46°53' W 002°28'410.4
2017-Jun-14 17:30N 46°57' W 002°29'510.0
2017-Jun-14 17:00N 47°02' W 002°31'610.1
2017-Jun-14 16:27N 47°08' W 002°32'510.3
2017-Jun-14 15:57N 47°13' W 002°33'4 9.7
2017-Jun-14 15:30N 47°17' W 002°34'4 8.2
2017-Jun-14 15:00N 47°21' W 002°31'0 0.0
2017-Jun-14 10:21N 47°21' W 002°31'2 4.4
2017-Jun-14 10:00N 47°20' W 002°32'5 9.3
2017-Jun-14 09:30N 47°15' W 002°34'5 9.4
2017-Jun-14 09:00N 47°10' W 002°34'0 0.2
2017-Jun-14 08:16N 47°10' W 002°34'2 6.0
2017-Jun-14 07:52N 47°13' W 002°34'1 3.3
2017-Jun-14 07:30N 47°14' W 002°34'0 0.4
2017-Jun-14 06:57N 47°14' W 002°34'0 0.7
2017-Jun-14 06:28N 47°14' W 002°34'3 6.0
2017-Jun-14 06:00N 47°17' W 002°35'2 4.8
2017-Jun-14 05:30N 47°19' W 002°34'3 5.1
2017-Jun-14 05:00N 47°21' W 002°31'0 0.0
2017-Jun-14 04:30N 47°21' W 002°31'0 0.0
2017-Jun-14 04:00N 47°21' W 002°31'0 0.0
2017-Jun-14 03:31N 47°21' W 002°31'0 0.0
2017-Jun-14 03:00N 47°21' W 002°31'0 0.0
2017-Jun-14 02:30N 47°21' W 002°31'0 0.0
2017-Jun-14 02:00N 47°21' W 002°31'0 0.0
2017-Jun-14 01:30N 47°21' W 002°31'0 0.0
2017-Jun-14 01:00N 47°21' W 002°31'0 0.0
2017-Jun-14 00:29N 47°21' W 002°31'0 0.0
2017-Jun-14 00:00N 47°21' W 002°31'0 0.0
2017-Jun-13 21:40N 47°21' W 002°31'0 0.0
2017-Jun-13 21:30N 47°21' W 002°31'0 0.0
2017-Jun-13 20:59N 47°21' W 002°31'0 0.0
2017-Jun-13 18:45N 47°21' W 002°31'0 0.0
2017-Jun-13 18:30N 47°21' W 002°31'0 0.0
2017-Jun-13 17:43N 47°21' W 002°31'0 0.0
2017-Jun-13 17:29N 47°21' W 002°31'0 0.0
2017-Jun-13 16:59N 47°21' W 002°31'0 0.0
2017-Jun-13 16:30N 47°21' W 002°31'4 7.0
2017-Jun-13 16:00N 47°18' W 002°35'5 9.5
2017-Jun-13 15:30N 47°14' W 002°34'5 2.0
2017-Jun-13 13:02N 47°11' W 002°40'1 7.6
2017-Jun-13 12:57N 47°11' W 002°41'3 5.8
2017-Jun-13 12:30N 47°12' W 002°44'0 0.2
2017-Jun-13 12:00N 47°12' W 002°45'2 3.2
2017-Jun-13 11:30N 47°12' W 002°42'1 2.0
2017-Jun-13 11:00N 47°12' W 002°44'3 5.0
2017-Jun-13 10:30N 47°13' W 002°47'1 3.0
2017-Jun-13 10:00N 47°15' W 002°48'3 6.3
2017-Jun-13 09:30N 47°17' W 002°44'2 3.9
2017-Jun-13 09:00N 47°18' W 002°42'1 1.7
2017-Jun-13 08:30N 47°17' W 002°43'1 1.8
2017-Jun-13 08:00N 47°17' W 002°44'0 0.0
2017-Jun-13 07:30N 47°17' W 002°44'1 1.9
2017-Jun-13 07:00N 47°16' W 002°45'2 3.7
2017-Jun-13 06:30N 47°17' W 002°43'3 5.6
2017-Jun-13 06:00N 47°19' W 002°39'3 6.6
2017-Jun-13 05:30N 47°20' W 002°35'3 5.3
2017-Jun-13 05:00N 47°21' W 002°31'  

Dump ship's entire track history